1498406401.07,32344,24.81,74096.8,13.35,-3.87,-6.73,0,*45
1498406402.32,32345,24.81,74096.5,13.33,-3.71,-6.63,0,*4A
1498406403.53,32346,24.81,74096.8,13.33,-3.71,-6.47,0,*4F
1498406404.75,32347,24.81,74096.8,13.33,-3.71,-6.51,0,*49
1498406405.99,32348,24.81,74102.0,13.35,-3.67,-6.47,0,*40
1498406407.21,32349,24.81,74098.0,13.33,-3.59,-6.39,0,*43
1498406408.45,32350,24.81,74096.0,13.35,-3.35,-6.23,0,*4C
1498406409.68,32351,24.81,74096.5,13.37,-3.43,-6.23,0,*4E
1498406410.9,32352,24.81,74098.5,13.33,-3.27,-6.23,0,*4B
1498406412.11,32353,24.81,74100.0,13.33,-3.23,-6.19,0,*47
1498406413.32,32354,24.81,74102.0,13.35,-3.07,-6.01,0,*49
1498406414.54,32355,24.81,74098.8,13.35,-3.07,-6.13,0,*4B
1498406415.77,32356,24.81,74102.5,13.35,-3.23,-6.23,0,*4D
1498406416.98,32357,24.81,74098.5,13.35,-2.95,-6.01,0,*40
1498406418.22,32358,24.81,74096.5,13.35,-2.83,-5.81,0,*43
1498406419.43,32359,24.81,74098.5,13.35,-3.19,-6.13,0,*48
1498406420.67,32360,24.81,74102.0,13.35,-3.19,-6.19,0,*48
1498406421.89,32361,24.81,74096.0,13.35,-3.11,-6.13,0,*4B
1498406423.13,32362,24.81,74102.8,13.35,-2.95,-5.93,0,*4E
1498406424.32,32363,24.81,74102.0,13.33,-2.87,-5.97,0,*4E
1498406425.53,32364,24.81,74100.3,13.37,-3.11,-6.23,0,*4F
1498406426.75,32365,24.81,74100.8,13.35,-2.95,-6.13,0,*42
1498406427.94,32366,24.81,74102.0,13.33,-2.99,-5.97,0,*44
1498406429.15,32367,24.81,74098.3,13.33,-2.87,-5.85,0,*49
1498406430.4,32368,24.81,74100.8,13.35,-2.79,-5.89,0,*4D
1498406431.64,32369,24.81,74102.0,13.37,-2.71,-5.81,0,*4E
1498406432.88,32370,24.81,74100.3,13.37,-2.71,-5.89,0,*4E
1498406434.1,32371,24.81,74098.0,13.35,-2.99,-6.13,0,*4B
1498406435.3,32372,24.81,74100.0,13.35,-2.83,-6.01,0,*40
1498406436.54,32373,24.81,74100.3,13.35,-2.83,-5.93,0,*49
1498406437.8,32374,24.81,74100.3,13.35,-2.59,-5.81,0,*4A
1498406439.04,32375,24.81,74100.0,13.33,-2.75,-5.93,0,*40
1498406440.3,32376,24.81,74102.3,13.35,-2.59,-5.77,0,*41
1498406441.51,32377,24.81,74100.0,13.33,-2.75,-5.97,0,*46
1498406442.78,32378,24.81,74098.3,13.35,-2.67,-5.89,0,*43
1498406444.02,32379,24.81,74098.3,13.33,-2.71,-5.93,0,*48
1498406445.28,32380,24.81,74098.3,13.35,-2.55,-5.73,0,*40
1498406446.49,32381,24.81,74098.3,13.33,-2.35,-5.69,0,*4A
1498406447.69,32382,24.81,74096.8,13.33,-2.23,-5.51,0,*45
1498406448.91,32383,24.81,74100.0,13.35,-2.31,-5.55,0,*45
1498406450.1,32384,24.81,74098.8,13.33,-2.35,-5.55,0,*40
1498406451.3,32385,24.81,74096.8,13.33,-2.27,-5.55,0,*42
1498406452.54,32386,24.81,74100.0,13.35,-2.11,-5.39,0,*48
1498406453.73,32387,24.81,74102.0,13.33,-2.15,-5.43,0,*46
1498406454.97,32388,24.81,74100.0,13.35,-2.03,-5.35,0,*49
1498406456.2,32389,24.81,74096.8,13.35,-1.95,-5.39,0,*48
1498406457.45,32390,24.81,74098.0,13.35,-2.11,-5.39,0,*4F
1498406458.66,32391,24.81,74098.5,13.33,-2.27,-5.73,0,*43
1498406459.89,32392,24.81,74102.0,13.35,-2.43,-5.81,0,*49
1498406461.14,32393,24.81,74100.3,13.35,-2.11,-5.55,0,*46
1498406462.38,32394,24.81,74100.3,13.35,-1.95,-5.35,0,*48
1498406463.6,32395,24.81,74102.5,13.33,-2.07,-5.47,0,*42
1498406464.81,32396,24.81,74102.8,13.33,-2.59,-6.09,0,*43
1498406466.04,32397,24.81,74100.3,13.35,-2.35,-5.93,0,*4E
1498406467.31,32398,24.81,74100.0,13.35,-2.11,-5.69,0,*42
1498406468.54,32399,24.81,74102.5,13.33,-2.07,-5.55,0,*4D
1498406469.78,32400,24.81,74096.5,13.35,-2.03,-5.55,0,*48
1498406470.99,32401,24.81,74098.3,13.33,-1.95,-5.43,0,*44
1498406472.26,32402,24.81,74102.5,13.35,-2.07,-5.69,0,*41
1498406473.51,32403,24.81,74100.3,13.35,-2.07,-5.55,0,*4F
1498406474.73,32404,24.81,74102.5,13.33,-2.27,-5.85,0,*41
1498406475.94,32405,24.81,74100.3,13.33,-2.19,-5.81,0,*49
1498406477.15,32406,24.81,74100.3,13.33,-2.15,-5.81,0,*46
1498406478.4,32407,24.81,74102.8,13.33,-2.11,-5.81,0,*43
1498406479.65,32408,24.81,74100.8,13.33,-2.11,-5.93,0,*4F
1498406480.83,32409,24.81,74098.5,13.33,-2.27,-6.05,0,*47
1498406482.08,32410,24.81,74100.0,13.33,-2.11,-5.69,0,*43
1498406483.32,32411,24.81,74100.5,13.33,-2.11,-5.85,0,*40
1498406484.57,32412,24.81,74104.3,13.33,-1.99,-5.81,0,*44
1498406485.76,32413,24.81,74102.0,13.33,-2.23,-6.05,0,*48
1498406486.99,32414,24.81,74102.0,13.33,-1.95,-5.73,0,*43
1498406488.26,32415,24.81,74102.0,13.31,-1.95,-5.73,0,*40
1498406489.5,32416,24.81,74100.8,13.33,-2.07,-5.93,0,*47
1498406490.74,32417,24.81,74100.0,13.33,-2.07,-5.93,0,*46
1498406491.99,32418,24.81,74100.8,13.33,-2.07,-5.93,0,*49
1498406493.22,32419,24.81,74104.3,13.33,-1.83,-5.73,0,*49
1498406494.47,32420,24.81,74100.0,13.33,-1.83,-5.69,0,*48
1498406495.7,32421,24.81,74102.0,13.31,-1.71,-5.55,0,*49
1498406496.97,32422,24.81,74102.8,13.31,-1.87,-5.81,0,*4A
1498406498.21,32423,24.81,74102.5,13.31,-1.75,-5.73,0,*4B
1498406499.46,32424,24.81,74104.3,13.33,-1.87,-5.85,0,*4A
1498406500.7,32425,24.81,74100.0,13.33,-1.87,-5.81,0,*4F
1498406501.94,32426,24.81,74098.5,13.31,-1.75,-5.73,0,*4E
1498406503.19,32427,24.81,74100.3,13.31,-1.75,-5.81,0,*42
1498406504.46,32428,24.81,74104.0,13.31,-1.83,-5.81,0,*44
1498406505.71,32429,24.81,74100.0,13.31,-1.71,-5.81,0,*48
1498406506.99,32430,24.81,74100.5,13.31,-1.47,-5.61,0,*4B
1498406508.21,32431,24.81,74102.8,13.31,-1.59,-5.55,0,*42
1498406509.48,32432,24.81,74102.0,13.31,-2.07,-6.19,0,*42
1498406510.75,32433,24.81,74104.3,13.31,-2.11,-6.23,0,*4D
1498406512.0,32434,24.81,74100.0,13.31,-1.99,-6.05,0,*4D
1498406513.24,32435,24.81,74098.5,13.31,-1.63,-5.73,0,*4B
1498406514.48,32436,24.81,74100.5,13.31,-1.83,-5.97,0,*4C
1498406515.73,32437,24.81,74100.8,13.31,-1.75,-5.93,0,*40
1498406516.94,32438,24.81,74102.5,13.31,-1.75,-5.97,0,*4B
1498406518.22,32439,24.81,74100.3,13.31,-2.07,-6.19,0,*49
1498406519.46,32440,24.81,74102.3,13.31,-1.83,-6.05,0,*45
1498406520.68,32441,24.81,74102.0,13.29,-1.67,-5.85,0,*4C
1498406521.9,32442,24.81,74102.0,13.29,-1.63,-5.85,0,*4B
1498406523.18,32443,24.81,74102.5,13.31,-1.99,-6.19,0,*40
1498406524.4,32444,24.81,74102.8,13.29,-1.63,-5.85,0,*4D
1498406525.62,32445,24.81,74102.5,13.29,-1.51,-5.65,0,*43
1498406526.89,32446,24.81,74102.3,13.31,-1.47,-5.69,0,*42
1498406528.17,32447,24.81,74100.8,13.31,-1.47,-5.61,0,*4B
1498406529.44,32448,24.81,74098.3,13.31,-1.47,-5.69,0,*4C
1498406530.68,32449,24.81,74100.8,13.35,-1.55,-5.81,0,*4C
1498406531.92,32450,24.81,74100.3,13.33,-1.47,-5.81,0,*41
1498406533.2,32451,24.81,74100.8,13.31,-1.47,-5.69,0,*44
1498406534.47,32452,24.81,74100.0,13.31,-1.39,-5.69,0,*4E
1498406535.75,32453,24.81,74100.8,13.31,-1.39,-5.81,0,*49
1498406536.93,32454,24.81,74100.3,13.33,-1.63,-5.97,0,*44
1498406538.17,32455,24.81,74100.3,13.33,-1.47,-5.73,0,*49
1498406539.44,32456,24.81,74102.0,13.35,-1.47,-5.89,0,*49
1498406540.69,32457,24.81,74098.8,13.33,-1.47,-5.85,0,*42
1498406541.93,32458,24.81,74102.0,13.35,-1.33,-5.81,0,*4C
1498406543.2,32459,24.81,74100.3,13.35,-1.35,-5.81,0,*4B
1498406544.44,32460,24.81,74098.3,13.35,-1.67,-6.19,0,*44
1498406545.64,32461,24.81,74100.0,13.33,-1.59,-6.23,0,*47
1498406546.88,32462,24.81,74102.0,13.35,-1.43,-6.05,0,*4D
1498406548.12,32463,24.81,74100.5,13.35,-1.43,-6.05,0,*4C
1498406549.33,32464,24.81,74100.3,13.33,-1.47,-5.97,0,*41
1498406550.57,32465,24.81,74102.3,13.35,-1.43,-6.13,0,*4D
1498406551.83,32466,24.81,74096.8,13.35,-1.35,-5.93,0,*44
1498406553.07,32467,24.81,74102.5,13.35,-1.35,-6.01,0,*4D
1498406554.3,32468,24.81,74102.5,13.35,-1.35,-6.01,0,*42
1498406555.52,32469,24.81,74098.5,13.35,-1.33,-6.01,0,*45
1498406556.71,32470,24.81,74100.8,13.37,-1.33,-6.01,0,*4F
1498406557.95,32471,24.81,74102.0,13.37,-1.35,-6.19,0,*41
1498406559.22,32472,24.81,74102.5,13.35,-1.35,-6.19,0,*40
1498406560.46,32473,24.81,74100.5,13.35,-1.33,-6.19,0,*47
1498406561.68,32474,24.81,74102.8,13.37,-1.91,-6.85,0,*4F
1498406562.9,32475,24.81,74098.3,13.37,-1.91,-6.81,0,*4A
1498406564.09,32476,24.81,74102.0,13.41,-1.67,-6.55,0,*48
1498406565.28,32477,24.81,74102.5,13.41,-1.63,-6.51,0,*49
1498406566.47,32478,24.81,74102.3,13.37,-1.55,-6.55,0,*46
1498406567.66,32479,24.81,74102.0,13.37,-1.55,-6.55,0,*47
1498406568.88,32480,24.81,74098.5,13.37,-1.43,-6.35,0,*40
1498406570.08,32481,24.81,74100.8,13.41,-1.33,-6.31,0,*43
1498406571.3,32482,24.81,74100.3,13.37,-1.43,-6.55,0,*44
1498406572.48,32483,24.81,74104.5,13.37,-1.59,-6.69,0,*41
1498406573.67,32484,24.81,74100.8,13.41,-1.55,-6.69,0,*4B
1498406574.9,32485,24.81,74100.8,13.41,-1.91,-7.05,0,*49
1498406576.14,32486,24.81,74098.5,13.41,-1.99,-7.05,0,*42
1498406577.36,32487,24.81,74098.0,13.37,-2.03,-7.15,0,*43
1498406578.6,32488,24.81,74102.0,13.37,-1.83,-7.05,0,*46
1498406579.84,32489,24.81,74100.8,13.37,-1.83,-6.97,0,*4D
1498406581.05,32490,24.81,74102.3,13.37,-1.79,-6.97,0,*40
1498406582.28,32491,24.81,74100.8,13.37,-2.07,-7.11,0,*44
1498406583.52,32492,24.81,74102.0,13.41,-1.87,-7.01,0,*4C
1498406584.74,32493,24.81,74102.0,13.41,-2.03,-7.19,0,*4B
1498406585.96,32494,24.81,74100.3,13.37,-2.11,-7.49,0,*4B
1498406587.17,32495,24.81,74096.3,13.37,-2.43,-7.65,0,*43
1498406588.39,32496,24.81,74100.0,13.37,-2.31,-7.61,0,*41
1498406589.61,32497,24.81,74100.8,13.41,-2.31,-7.69,0,*49
1498406590.8,32498,24.81,74102.5,13.37,-2.19,-7.49,0,*4F
1498406592.02,32499,24.81,74102.8,13.37,-2.11,-7.49,0,*46
1498406593.25,32500,24.81,74100.3,13.35,-2.43,-7.73,0,*4B
1498406594.46,32501,24.81,74096.0,13.35,-2.19,-7.53,0,*47
1498406595.7,32502,24.81,74102.5,13.35,-2.11,-7.53,0,*4C
1498406596.94,32503,24.81,74100.8,13.35,-2.23,-7.73,0,*4E
1498406598.16,32504,24.81,74098.3,13.37,-2.31,-7.73,0,*48
1498406599.38,32505,24.81,74098.0,13.37,-2.23,-7.61,0,*49
1498406600.59,32506,24.81,74098.8,13.37,-2.19,-7.65,0,*47
1498406601.84,32507,24.81,74098.8,13.37,-2.11,-7.61,0,*4A
1498406603.08,32508,24.81,74096.0,13.37,-2.67,-8.07,0,*4B
1498406604.3,32509,24.81,74098.0,13.37,-2.31,-7.73,0,*45
1498406605.52,32510,24.81,74100.3,13.37,-2.43,-7.91,0,*44
1498406606.75,32511,24.81,74100.3,13.37,-2.55,-8.03,0,*46
1498406607.99,32512,24.81,74100.5,13.41,-2.55,-8.03,0,*44
1498406609.2,32513,24.81,74100.0,13.37,-2.67,-8.29,0,*4D
1498406610.41,32514,24.81,74100.0,13.37,-2.59,-8.21,0,*4F
1498406611.63,32515,24.81,74102.0,13.37,-2.71,-8.17,0,*41
1498406612.87,32516,24.81,74096.0,13.37,-2.59,-8.07,0,*49
1498406614.11,32517,24.81,74102.0,13.37,-2.59,-8.07,0,*48
1498406615.36,32518,24.81,74098.0,13.37,-2.55,-8.07,0,*4B
1498406616.6,32519,24.81,74098.0,13.41,-2.63,-8.03,0,*4A
1498406617.82,32520,24.81,74094.8,13.41,-2.75,-8.25,0,*43
1498406619.01,32521,24.81,74096.0,13.37,-2.95,-8.55,0,*4A
1498406620.2,32522,24.81,74096.0,13.41,-2.87,-8.41,0,*4E
1498406621.41,32523,24.81,74100.5,13.41,-2.87,-8.51,0,*4E
1498406622.6,32524,24.81,74100.3,13.41,-3.07,-8.59,0,*48
1498406623.78,32525,24.81,74100.5,13.37,-3.07,-8.67,0,*45
1498406624.97,32526,24.81,74096.0,13.37,-2.95,-8.59,0,*41
1498406626.17,32527,24.81,74098.5,13.41,-3.27,-8.71,0,*43
1498406627.36,32528,24.81,74098.8,13.37,-3.35,-8.71,0,*4E
1498406628.54,32529,24.81,74100.3,13.37,-3.23,-8.71,0,*48
1498406629.74,32530,24.81,74096.8,13.37,-3.35,-8.85,0,*4C
1498406630.98,32531,24.81,74096.5,13.37,-3.67,-9.11,0,*46
1498406632.2,32532,24.81,74104.0,13.37,-3.59,-8.97,0,*47
1498406633.42,32533,24.81,74098.5,13.37,-3.43,-8.85,0,*4E
1498406634.63,32534,24.81,74098.8,13.37,-3.55,-8.97,0,*4D
1498406635.84,32535,24.81,74102.5,13.37,-3.43,-8.75,0,*47
1498406637.04,32536,24.81,74096.8,13.41,-3.39,-8.71,0,*4C
1498406638.23,32537,24.81,74098.0,13.37,-3.87,-9.23,0,*4F
1498406639.49,32538,24.81,74098.5,13.35,-3.71,-9.11,0,*4A
1498406640.73,32539,24.81,74096.3,13.35,-3.55,-8.85,0,*41
1498406641.95,32540,24.81,74100.0,13.37,-3.47,-8.71,0,*45
1498406643.16,32541,24.81,74096.5,13.37,-3.59,-8.97,0,*43
1498406644.38,32542,24.81,74098.0,13.37,-4.09,-9.37,0,*49
1498406645.59,32543,24.81,74096.8,13.35,-4.37,-9.71,0,*45
1498406646.81,32544,24.81,74098.8,13.33,-4.17,-9.41,0,*45
1498406648.04,32545,24.81,74096.8,13.35,-3.75,-9.01,0,*45
1498406649.28,32546,24.81,74098.3,13.35,-4.01,-9.23,0,*42
1498406650.52,32547,24.81,74096.3,13.35,-3.87,-9.11,0,*4B
1498406651.73,32548,24.81,74096.8,13.35,-3.87,-8.97,0,*4B
1498406652.97,32549,24.81,74102.3,13.35,-4.09,-9.15,0,*40
1498406654.19,32550,24.81,74094.0,13.35,-4.09,-9.01,0,*4D
1498406655.43,32551,24.81,74098.0,13.35,-4.13,-9.11,0,*46
1498406656.65,32552,24.81,74096.0,13.35,-4.25,-9.27,0,*45
1498406657.84,32553,24.81,74096.0,13.33,-4.25,-9.19,0,*4F
1498406659.03,32554,24.81,74102.3,13.33,-4.17,-9.05,0,*44
1498406660.21,32555,24.81,74098.3,13.33,-4.41,-9.27,0,*46
1498406661.46,32556,24.81,74098.0,13.35,-4.25,-9.11,0,*44
1498406662.67,32557,24.81,74096.3,13.33,-4.89,-9.75,0,*47
1498406663.89,32558,24.81,74096.0,13.33,-4.89,-9.71,0,*4C
1498406665.11,32559,24.81,74098.5,13.33,-4.57,-9.41,0,*4D
1498406666.3,32560,24.81,74098.3,13.33,-4.37,-9.01,0,*45
1498406667.49,32561,24.81,74096.0,13.33,-4.29,-8.93,0,*41
1498406668.7,32562,24.81,74098.3,13.31,-4.41,-9.05,0,*40
1498406669.92,32563,24.81,74096.0,13.31,-4.29,-8.75,0,*49
1498406671.14,32564,24.81,74096.8,13.31,-4.25,-8.71,0,*46
1498406672.35,32565,24.81,74096.8,13.33,-4.41,-8.81,0,*48
1498406673.53,32566,24.81,74098.8,13.33,-4.37,-8.75,0,*41
1498406674.71,32567,24.81,74096.8,13.33,-4.37,-8.71,0,*44
1498406675.9,32568,24.81,74098.3,13.33,-4.53,-8.89,0,*4E
1498406677.09,32569,24.81,74094.3,13.33,-4.57,-8.93,0,*40
1498406678.33,32570,24.81,74098.3,13.31,-4.49,-8.81,0,*46
1498406679.54,32571,24.81,74096.0,13.31,-4.41,-8.63,0,*43
1498406680.75,32572,24.81,74096.3,13.31,-4.37,-8.59,0,*48
1498406681.99,32573,24.81,74096.3,13.31,-4.57,-8.81,0,*4A
1498406683.23,32574,24.81,74096.8,13.31,-4.65,-8.81,0,*4C
1498406684.5,32575,24.81,74096.3,13.31,-5.07,-9.15,0,*44
1498406685.75,32576,24.81,74098.8,13.31,-5.15,-9.27,0,*45
1498406686.99,32577,24.81,74096.5,13.31,-4.89,-8.93,0,*4E
1498406688.22,32578,24.81,74096.8,13.31,-4.77,-8.75,0,*48
1498406689.45,32579,24.81,74096.8,13.31,-4.69,-8.75,0,*46
1498406690.69,32580,24.81,74098.5,13.31,-4.69,-8.63,0,*47
1498406691.91,32581,24.81,74098.8,13.29,-4.57,-8.51,0,*43
1498406693.13,32582,24.81,74098.0,13.31,-4.49,-8.37,0,*46
1498406694.36,32583,24.81,74098.8,13.31,-4.89,-8.63,0,*4A
1498406695.61,32584,24.81,74094.8,13.31,-5.15,-8.89,0,*4D
1498406696.88,32585,24.81,74092.0,13.31,-5.03,-8.81,0,*43
1498406698.08,32586,24.81,74094.5,13.29,-4.93,-8.67,0,*49
1498406699.29,32587,24.81,74098.5,13.29,-4.93,-8.55,0,*49
1498406700.49,32588,24.81,74096.5,13.29,-4.69,-8.29,0,*48
1498406701.73,32589,24.81,74096.3,13.31,-4.81,-8.45,0,*4C
1498406702.98,32590,24.81,74098.0,13.31,-4.93,-8.37,0,*42
1498406704.22,32591,24.81,74096.5,13.31,-4.89,-8.37,0,*48
1498406705.44,32592,24.81,74098.5,13.29,-4.93,-8.37,0,*49
1498406706.65,32593,24.81,74096.3,13.29,-4.93,-8.25,0,*4B
1498406707.83,32594,24.81,74094.8,13.29,-4.99,-8.25,0,*46
1498406709.04,32595,24.81,74094.5,13.29,-4.93,-8.21,0,*49
1498406710.26,32596,24.81,74096.8,13.29,-5.07,-8.17,0,*43
1498406711.48,32597,24.81,74098.5,13.29,-5.19,-8.29,0,*40
1498406712.76,32598,24.81,74096.0,13.31,-5.03,-8.07,0,*41
1498406714.0,32599,24.81,74092.0,13.29,-5.11,-8.11,0,*4D
1498406715.22,32600,24.81,74096.5,13.29,-5.31,-8.17,0,*4A
1498406716.44,32601,24.81,74094.5,13.29,-5.07,-7.87,0,*48
1498406717.66,32602,24.81,74096.8,13.29,-5.11,-7.83,0,*48
1498406718.88,32603,24.81,74096.0,13.29,-5.11,-7.83,0,*49
1498406720.1,32604,24.81,74096.3,13.29,-5.19,-7.83,0,*46
1498406721.33,32605,24.81,74098.5,13.29,-5.19,-7.83,0,*47
1498406722.6,32606,24.81,74096.5,13.27,-5.15,-7.65,0,*4E
1498406723.86,32607,24.81,74094.8,13.27,-5.23,-7.77,0,*49
1498406725.1,32608,24.81,74092.8,13.27,-5.11,-7.53,0,*41
1498406726.34,32609,24.81,74094.5,13.29,-5.19,-7.57,0,*42
1498406727.58,32610,24.81,74094.8,13.29,-5.11,-7.35,0,*46
1498406728.83,32611,24.81,74096.3,13.29,-5.31,-7.61,0,*44
1498406730.08,32612,24.81,74092.0,13.29,-5.11,-7.31,0,*40
1498406731.32,32613,24.81,74096.0,13.27,-5.03,-7.19,0,*46
1498406732.55,32614,24.81,74098.3,13.27,-4.99,-7.05,0,*4E
1498406733.81,32615,24.81,74096.0,13.27,-5.03,-7.05,0,*4D
1498406735.07,32616,24.81,74094.5,13.27,-5.03,-6.97,0,*44
1498406736.32,32617,24.81,74096.0,13.27,-5.23,-7.11,0,*48
1498406737.58,32618,24.81,74092.3,13.27,-5.15,-6.97,0,*4D
1498406738.83,32619,24.81,74096.0,13.27,-5.03,-6.85,0,*48
1498406740.06,32620,24.81,74094.8,13.29,-4.93,-6.63,0,*4C
1498406741.27,32621,24.81,74096.5,13.27,-4.99,-6.69,0,*43
1498406742.5,32622,24.81,74092.0,13.27,-5.11,-6.69,0,*41
1498406743.74,32623,24.81,74092.0,13.27,-5.03,-6.55,0,*4C
1498406744.98,32624,24.81,74092.0,13.27,-5.15,-6.69,0,*43
1498406746.22,32625,24.81,74098.3,13.27,-5.27,-6.81,0,*45
1498406747.46,32626,24.81,74094.8,13.27,-5.39,-6.93,0,*4A
1498406748.68,32627,24.81,74094.5,13.27,-5.35,-6.85,0,*40
1498406749.89,32628,24.81,74092.5,13.27,-5.39,-6.81,0,*47
1498406751.12,32629,24.81,74094.8,13.25,-5.15,-6.47,0,*40
1498406752.34,32630,24.81,74094.0,13.25,-5.15,-6.51,0,*4F
1498406753.56,32631,24.81,74098.8,13.25,-5.27,-6.59,0,*47
1498406754.8,32632,24.81,74096.3,13.27,-5.27,-6.43,0,*4D
1498406756.05,32633,24.81,74094.8,13.25,-4.89,-6.19,0,*44
1498406757.3,32634,24.81,74096.3,13.27,-4.77,-5.93,0,*41
1498406758.53,32635,24.81,74096.0,13.27,-4.85,-6.13,0,*46
1498406759.78,32636,24.81,74096.5,13.27,-5.23,-6.35,0,*4C
1498406761.03,32637,24.81,74098.8,13.27,-5.11,-6.23,0,*4B
1498406762.26,32638,24.81,74094.8,13.25,-5.19,-6.31,0,*4D
1498406763.47,32639,24.81,74096.8,13.25,-5.19,-6.09,0,*47
1498406764.72,32640,24.81,74096.5,13.25,-4.89,-5.85,0,*46
1498406765.98,32641,24.81,74096.0,13.27,-4.73,-5.69,0,*42
1498406767.21,32642,24.81,74094.0,13.25,-4.77,-5.73,0,*4C
1498406768.43,32643,24.81,74096.0,13.27,-4.65,-5.55,0,*48
1498406769.65,32644,24.81,74092.5,13.25,-4.69,-5.55,0,*41
1498406770.87,32645,24.81,74092.8,13.25,-4.69,-5.55,0,*40
1498406772.06,32646,24.81,74094.0,13.25,-4.65,-5.51,0,*4B
1498406773.3,32647,24.81,74098.8,13.27,-4.73,-5.51,0,*4F
1498406774.51,32648,24.81,74092.5,13.25,-4.69,-5.43,0,*4A
1498406775.73,32649,24.81,74096.3,13.27,-4.65,-5.47,0,*41
1498406776.96,32650,24.81,74096.5,13.27,-4.85,-5.55,0,*44
1498406778.18,32651,24.81,74098.8,13.25,-4.81,-5.55,0,*43
1498406779.4,32652,24.81,74096.0,13.25,-4.69,-5.51,0,*42
1498406780.62,32653,24.81,74092.0,13.25,-4.65,-5.27,0,*4E
1498406781.84,32654,24.81,74094.5,13.27,-4.61,-5.35,0,*4C
1498406783.04,32655,24.81,74094.8,13.25,-4.69,-5.43,0,*46
1498406784.26,32656,24.81,74092.0,13.25,-4.77,-5.39,0,*47
1498406785.48,32657,24.81,74094.5,13.23,-4.61,-5.27,0,*48
1498406786.69,32658,24.81,74096.0,13.23,-4.77,-5.39,0,*4F
1498406787.91,32659,24.81,74094.3,13.23,-4.65,-5.15,0,*43
1498406789.13,32660,24.81,74094.8,13.23,-4.49,-5.07,0,*44
1498406790.36,32661,24.81,74098.3,13.21,-4.45,-4.93,0,*47
1498406791.58,32662,24.81,74092.8,13.23,-4.37,-4.69,0,*46
1498406792.79,32663,24.81,74094.5,13.23,-4.37,-4.69,0,*47
1498406794.02,32664,24.81,74094.3,13.21,-4.21,-4.57,0,*48
1498406795.22,32665,24.81,74092.0,13.23,-4.25,-4.49,0,*40
1498406796.44,32666,24.81,74092.8,13.23,-4.41,-4.81,0,*45
1498406797.63,32667,24.81,74094.8,13.23,-4.17,-4.49,0,*43
1498406798.82,32668,24.81,74094.8,13.23,-4.05,-4.37,0,*46
1498406800.02,32669,24.81,74096.5,13.23,-3.87,-4.13,0,*4C
1498406801.22,32670,24.81,74094.0,13.23,-4.05,-4.29,0,*40
1498406802.41,32671,24.81,74096.5,13.23,-4.17,-4.41,0,*4C
1498406803.6,32672,24.81,74094.5,13.25,-4.41,-4.53,0,*49
1498406804.82,32673,24.81,74096.3,13.25,-4.53,-4.69,0,*42
1498406806.02,32674,24.81,74096.3,13.25,-4.29,-4.49,0,*4A
1498406807.22,32675,24.81,74094.3,13.25,-4.25,-4.37,0,*4E
1498406808.41,32676,24.81,74092.3,13.25,-4.17,-4.17,0,*4E
1498406809.61,32677,24.81,74092.5,13.25,-4.25,-4.25,0,*4F
1498406810.81,32678,24.81,74094.8,13.25,-4.25,-4.25,0,*40
1498406812.0,32679,24.81,74096.3,13.25,-4.13,-4.13,0,*41
1498406813.2,32680,24.81,74092.8,13.23,-4.13,-4.13,0,*41
1498406814.42,32681,24.81,74094.0,13.25,-3.91,-4.01,0,*48
1498406815.62,32682,24.81,74092.8,13.23,-4.25,-4.05,0,*41
1498406816.81,32683,24.81,74094.5,13.23,-4.13,-4.05,0,*45
1498406818.03,32684,24.81,74092.8,13.21,-4.05,-3.95,0,*49
1498406819.23,32685,24.81,74092.0,13.23,-3.91,-3.87,0,*43
1498406820.44,32686,24.81,74092.8,13.23,-3.87,-3.71,0,*4E
1498406821.63,32687,24.81,74094.0,13.23,-4.13,-3.91,0,*4B
1498406822.84,32688,24.81,74094.5,13.25,-3.87,-3.71,0,*46
1498406824.06,32689,24.81,74094.3,13.25,-3.87,-3.71,0,*47
1498406825.28,32690,24.81,74094.3,13.25,-3.83,-3.63,0,*48
1498406826.5,32691,24.81,74092.3,13.25,-3.91,-3.63,0,*4A
1498406827.72,32692,24.81,74092.5,13.25,-3.91,-3.59,0,*40
1498406828.94,32693,24.81,74098.3,13.25,-3.75,-3.47,0,*44
1498406830.16,32694,24.81,74094.8,13.25,-3.59,-3.23,0,*4F
1498406831.37,32695,24.81,74090.3,13.25,-3.59,-3.23,0,*4E
1498406832.61,32696,24.81,74096.0,13.27,-3.59,-3.23,0,*4F
1498406833.82,32697,24.81,74096.3,13.25,-3.71,-3.23,0,*46
1498406835.04,32698,24.81,74092.3,13.25,-3.51,-3.11,0,*4A
1498406836.27,32699,24.81,74094.0,13.27,-3.67,-3.19,0,*44
1498406837.51,32700,24.81,74094.3,13.27,-3.67,-3.11,0,*4D
1498406838.73,32701,24.81,74092.8,13.29,-3.55,-3.07,0,*44
1498406839.95,32702,24.81,74094.5,13.27,-3.83,-3.35,0,*43
1498406841.17,32703,24.81,74094.8,13.27,-3.87,-3.35,0,*46
1498406842.38,32704,24.81,74094.3,13.27,-3.79,-3.23,0,*47
1498406843.62,32705,24.81,74096.5,13.27,-3.67,-3.07,0,*4F
1498406844.86,32706,24.81,74092.8,13.27,-3.55,-2.95,0,*47
1498406846.1,32707,24.81,74094.8,13.27,-3.71,-3.11,0,*4D
1498406847.29,32708,24.81,74090.5,13.25,-3.83,-3.23,0,*4C
1498406848.53,32709,24.81,74094.8,13.27,-3.55,-2.95,0,*48
1498406849.77,32710,24.81,74096.5,13.27,-3.67,-3.03,0,*4F
1498406850.99,32711,24.81,74094.5,13.29,-3.55,-2.91,0,*4B
1498406852.21,32712,24.81,74096.8,13.29,-3.31,-2.75,0,*40
1498406853.43,32713,24.81,74092.3,13.27,-3.35,-2.79,0,*47
1498406854.67,32714,24.81,74092.8,13.27,-3.43,-2.79,0,*41
1498406855.88,32715,24.81,74098.5,13.27,-3.31,-2.83,0,*40
1498406857.09,32716,24.81,74092.5,13.27,-3.23,-2.83,0,*40
1498406858.34,32717,24.81,74092.8,13.27,-3.11,-2.67,0,*4A
1498406859.58,32718,24.81,74094.3,13.27,-2.95,-2.59,0,*45
1498406860.81,32719,24.81,74090.8,13.29,-3.15,-2.75,0,*4D
1498406862.03,32720,24.81,74096.0,13.31,-3.15,-2.87,0,*43
1498406863.25,32721,24.81,74096.5,13.29,-3.07,-2.67,0,*46
1498406864.47,32722,24.81,74096.3,13.29,-2.75,-2.39,0,*4A
1498406865.72,32723,24.81,74094.5,13.31,-2.51,-2.15,0,*4A
1498406866.97,32724,24.81,74090.8,13.31,-2.47,-2.23,0,*4F
1498406868.21,32725,24.81,74092.8,13.31,-2.51,-2.35,0,*4E
1498406869.45,32726,24.81,74092.0,13.31,-2.15,-1.95,0,*44
1498406870.7,32727,24.81,74094.3,13.33,-2.11,-1.87,0,*40
1498406871.94,32728,24.81,74092.8,13.33,-2.11,-1.83,0,*4B
1498406873.18,32729,24.81,74092.0,13.35,-1.91,-1.79,0,*42
1498406874.4,32730,24.81,74092.5,13.37,-1.55,-1.35,0,*48
1498406875.61,32731,24.81,74092.8,13.37,-1.43,-1.29,0,*43
1498406876.81,32732,24.81,74094.3,13.41,-1.29,-1.25,0,*41
1498406878.0,32733,24.81,74094.8,13.41,-1.33,-1.25,0,*4B
1498406879.24,32734,24.81,74092.5,13.43,-1.21,-1.13,0,*48
1498406880.45,32735,24.81,74094.5,13.45,-1.21,-1.09,0,*44
1498406881.67,32736,24.81,74092.8,13.45,-1.21,-1.09,0,*47
1498406882.91,32737,24.81,74092.8,13.47,-1.25,-1.43,0,*4E
1498406884.1,32738,24.81,74094.5,13.49,-1.21,-1.33,0,*4C
1498406885.34,32739,24.81,74094.0,13.49,-0.93,-1.05,0,*70
1498406886.59,32740,24.81,74092.0,13.51,-0.89,-1.01,0,*78
1498406887.81,32741,24.81,74092.0,13.53,-0.97,-1.17,0,*73
1498406889.03,32742,24.81,74094.3,13.53,-0.97,-1.17,0,*70
1498406890.29,32743,24.81,74092.8,13.57,-0.85,-1.13,0,*72
1498406891.53,32744,24.81,74090.8,13.57,-0.85,-1.25,0,*70
1498406892.75,32745,24.81,74092.8,13.57,-1.25,-1.67,0,*4C
1498406893.98,32746,24.81,74092.3,13.59,-1.17,-1.43,0,*46
1498406895.2,32747,24.81,74092.3,13.63,-1.05,-1.51,0,*4E
1498406896.41,32748,24.81,74092.5,13.63,-1.17,-1.71,0,*40
1498406897.65,32749,24.81,74094.0,13.63,-0.97,-1.39,0,*74
1498406898.9,32750,24.81,74092.5,13.67,-0.85,-1.35,0,*77
1498406900.12,32751,24.81,74092.8,13.67,-0.73,-1.35,0,*7F
1498406901.34,32752,24.81,74092.8,13.67,-0.69,-1.35,0,*77
1498406902.56,32753,24.81,74088.5,13.69,-0.65,-1.33,0,*72
1498406903.77,32754,24.81,74090.0,13.71,-0.69,-1.39,0,*7A
1498406904.96,32755,24.81,74094.5,13.71,-0.77,-1.51,0,*7A
1498406906.17,32756,24.81,74094.5,13.71,-0.93,-1.79,0,*79
1498406907.36,32757,24.81,74092.8,13.75,-0.81,-1.63,0,*74